Location: Vassar Physics Lab
(41.6843°N, 73.8954°W)
Time: 22:04:48
(UTC-04:00)

CZ-4B DEB - Visible Passes

Search period start: 27 April 2015 00:00
Search period end: 07 May 2015 00:00
Orbit: 841 x 864 km, 98.9° (Epoch: 27 April)

Date Brightness Start Highest point End Pass type
(mag) Time Alt. Az. Time Alt. Az. Time Alt. Az.
27 Apr 6.6 03:13:33 10° NE 03:16:45 16° E 03:20:12 10° SE visible
27 Apr 4.2 04:52:38 10° N 04:58:05 67° WNW 05:03:29 10° SSW visible
28 Apr 6.7 03:03:16 10° ENE 03:05:23 13° E 03:07:51 10° ESE visible
28 Apr 4.2 04:41:26 10° NNE 04:46:55 83° WNW 04:52:24 10° SSW visible
29 Apr 4.3 04:30:15 10° NNE 04:35:45 80° ESE 04:41:15 10° S visible
30 Apr 4.6 04:19:07 10° NNE 04:24:34 64° ESE 04:30:00 10° S visible
01 May 5.0 04:08:01 10° NNE 04:13:21 51° E 04:18:41 10° S visible
02 May 5.3 03:56:59 10° NNE 04:02:07 40° E 04:07:17 10° SSE visible
03 May 5.7 03:46:01 10° NNE 03:50:51 32° E 03:55:46 10° SSE visible
04 May 6.1 03:35:06 10° NE 03:39:34 26° E 03:44:09 10° SSE visible
04 May 4.7 05:15:21 10° N 05:20:31 43° WNW 05:25:38 10° SW visible
05 May 6.4 03:24:19 10° NE 03:28:16 21° E 03:32:23 10° SE visible
05 May 4.5 05:04:04 10° N 05:09:23 53° WNW 05:14:42 10° SW visible
06 May 6.6 03:13:41 10° NE 03:16:55 16° E 03:20:25 10° SE visible
06 May 4.3 04:52:48 10° N 04:58:15 67° WNW 05:03:41 10° SSW visible
